[[{"header":{"parameterUnit":"m.s-1","parameterCategory":1,"la1":30.2991,"la2":30.254,"lo1":-89.0895,"lo2":-89.0444,"dy":0.0017,"dx":0.0017,"nx":28,"ny":28,"refTime":"2024-08-15T21:00:00:Z","depth":0,"parameterNumber":2,"parameterNumberName":"U-component_of_WINDS"},"data":[0,0,0,0,0,0,0,0,0,0,0,0,0,0,0,0,0,0,0,0,0,0,0,0,0,0,0,0,0,0,0,0,0,0,0,0,0,0,0,0,0,0,0,0,0,0,0,0,0,0,0,0,0,0,0,0,0,0,0.2359,0.2359,0,0.2347,0.2347,0.2347,0.2344,0.2344,0.2344,0.2344,0.2332,0.2332,0.2331,0,0,0,0,0,0,0,0,0,0,0,0,0,0.2377,0.2377,0.2359,0.2359,0.2359,0.2347,0.2347,0.2347,0.2344,0.2344,0.2344,0.2344,0.2332,0.2332,0.2331,0,0,0,0,0,0,0,0,0,0,0,0,0,0.2368,0.2376,0.2359,0.2356,0.2355,0.2348,0.2347,0.2347,0.2344,0.2344,0.2344,0.2344,0.2332,0.2332,0.2331,0.2326,0,0,0.2329,0.2329,0,0,0,0,0,0,0,0,0.2368,0.2367,0.2356,0.2356,0.2356,0.2347,0.2349,0.234,0.2344,0.2348,0.2344,0.2344,0.2337,0.2336,0.2334,0.2325,0.2325,0.2329,0.2329,0.2329,0.2329,0,0,0,0,0,0,0,0.2369,0.2367,0.2354,0.2356,0.2356,0.2354,0.2353,0.2347,0.2342,0.2348,0.2348,0.2346,0.2337,0.2334,0.2333,0.2324,0.2329,0.2329,0.2328,0.2328,0.2309,0.2309,0,0,0,0,0,0,0.237,0.2368,0.2355,0.2354,0.2362,0.2354,0.2353,0.235,0.2342,0.2341,0.2346,0.2346,0.2335,0.2334,0.2333,0.2325,0.2329,0.2328,0.2328,0.2309,0.2309,0.2309,0,0,0,0,0,0,0.237,0.2369,0.2355,0.2361,0.2359,0.2354,0.235,0.235,0.2347,0.2341,0.234,0.2345,0.2335,0.2334,0.2327,0.2324,0.2328,0.2327,0.2309,0.2309,0.2309,0.2309,0,0,0,0,0,0,0.2371,0.2369,0.2367,0.2361,0.2359,0.235,0.235,0.2349,0.2346,0.2346,0.2339,0.2338,0.2335,0.2328,0.2326,0.2324,0.2327,0.2309,0.2309,0.2309,0.2309,0.2309,0.2309,0,0,0,0,0,0.2372,0.2368,0.2367,0.2366,0.2357,0.235,0.2349,0.2345,0.2346,0.2344,0.234,0.2338,0.2325,0.2327,0.2326,0.2323,0.231,0.2309,0.2309,0.231,0.2309,0.2309,0,0,0,0,0,0,0.2375,0.2367,0.2366,0.2361,0.2356,0.235,0.2347,0.2345,0.234,0.234,0.2336,0.2334,0.2328,0.2325,0.2327,0.2316,0.2317,0.2316,0.2318,0.2318,0.2317,0.2318,0.2326,0,0,0,0,0,0.2375,0.2371,0.2364,0.236,0.2358,0.2353,0.235,0.2347,0.2342,0.234,0.2335,0.233,0.2325,0.2321,0.2316,0.2309,0.2307,0.2306,0.2305,0.2305,0.2305,0.2299,0.2298,0.2307,0.2307,0.2307,0,0,0.2375,0.237,0.2368,0.236,0.2356,0.2351,0.2351,0.2346,0.2342,0.2339,0.2332,0.2329,0.2323,0.2315,0.2312,0.2313,0.2301,0.2305,0.2305,0.2304,0.2299,0.2298,0.2297,0.2307,0.2307,0.2307,0,0,0.2373,0.2369,0.2365,0.236,0.2354,0.235,0.2349,0.2343,0.234,0.2333,0.2331,0.2325,0.2316,0.2311,0.2308,0.2302,0.23,0.23,0.2298,0.2293,0.2292,0.2292,0.2288,0.2287,0.23,0.23,0.23,0,0.2374,0.2366,0.2362,0.2357,0.2353,0.235,0.2345,0.2341,0.2333,0.233,0.2331,0.2318,0.2314,0.2305,0.2303,0.2301,0.2299,0.2301,0.2293,0.2292,0.2291,0.2288,0.2287,0.23,0.23,0.23,0.23,0,0.2367,0.2362,0.2359,0.2351,0.2347,0.2342,0.2336,0.2332,0.233,0.2326,0.2318,0.2313,0.2306,0.2303,0.2301,0.2294,0.2294,0.2294,0.2295,0.229,0.2287,0.2286,0.23,0.23,0.23,0.23,0,0,0.2367,0.2356,0.2355,0.2351,0.2343,0.2339,0.2333,0.2325,0.2322,0.2316,0.231,0.2302,0.2301,0.2297,0.2294,0.229,0.2283,0.229,0.2289,0.2288,0.2273,0.2273,0.2272,0.2282,0.2282,0.2282,0.2273,0,0.2363,0.2352,0.2348,0.2339,0.2334,0.233,0.2325,0.2319,0.2315,0.2309,0.2304,0.2298,0.2298,0.2295,0.229,0.2285,0.228,0.2286,0.2276,0.2276,0.2277,0.227,0.227,0.2262,0.2272,0.2272,0.2272,0,0.2357,0.2351,0.2341,0.2333,0.233,0.2326,0.2318,0.2313,0.2305,0.2302,0.2297,0.2294,0.2287,0.2288,0.2277,0.2281,0.2277,0.2273,0.2273,0.2271,0.2273,0.2268,0.226,0.2258,0.227,0.227,0.227,0,0.2357,0.2346,0.2339,0.2335,0.2326,0.2322,0.2318,0.2311,0.2306,0.2299,0.2296,0.2288,0.2284,0.2277,0.2272,0.2274,0.2261,0.2262,0.2257,0.2257,0.2255,0.2255,0.2245,0.2253,0.2253,0.2253,0.2253,0,0.2353,0.2347,0.2338,0.2334,0.2327,0.2321,0.2314,0.2309,0.2303,0.2296,0.2293,0.2287,0.2281,0.2273,0.2269,0.226,0.2258,0.2255,0.2254,0.2255,0.2255,0.2252,0.2252,0.2253,0.2253,0.2253,0.2253,0,0.2351,0.2346,0.2337,0.2328,0.2325,0.232,0.2312,0.2307,0.2302,0.2294,0.2292,0.2284,0.2276,0.227,0.2259,0.2256,0.2245,0.2245,0.2248,0.2247,0.2242,0.2242,0.223,0.2227,0.2237,0.2237,0.2237,0,0.2349,0.2344,0.2334,0.2329,0.2325,0.2318,0.2313,0.2307,0.2302,0.2292,0.2288,0.2279,0.2271,0.2257,0.2251,0.2242,0.224,0.2236,0.2239,0.224,0.2239,0.2239,0.2238,0.2236,0.2236,0.2236,0.2236,0,0.2344,0.2341,0.2335,0.2326,0.232,0.2313,0.2306,0.2302,0.2295,0.2289,0.228,0.2274,0.2262,0.2253,0.2243,0.2238,0.2235,0.2235,0.2233,0.2234,0.2235,0.2233,0.2246,0.2235,0.2235,0.2235,0.2235,0.2235,0.2342,0.2337,0.2329,0.232,0.2314,0.2307,0.2302,0.2296,0.2288,0.2278,0.2275,0.2265,0.2256,0.2243,0.2237,0.2229,0.2229,0.2227,0.2226,0.2225,0.2225,0.2237,0.2227,0.2227,0.2227,0.2227,0.2227,0,0.2337,0.2331,0.2323,0.2313,0.2306,0.2304,0.2296,0.229,0.2282,0.2274,0.2266,0.2255,0.2245,0.2237,0.2227,0.2221,0.222,0.2219,0.2219,0.2217,0.2226,0.2228,0.222,0.222,0.222,0.222,0.222,0.222,0.2333,0.2324,0.232,0.2307,0.2301,0.2292,0.2287,0.228,0.2273,0.2261,0.2253,0.2247,0.2239,0.2228,0.2218,0.2216,0.2212,0.2211,0.2209,0.2216,0.2217,0.2218,0.222,0.2211,0.2211,0.2201,0.2201,0.2201]},{"header":{"parameterUnit":"m.s-1","parameterCategory":1,"la1":30.2991,"la2":30.254,"lo1":-89.0895,"lo2":-89.0444,"dy":0.0017,"dx":0.0017,"nx":28,"ny":28,"refTime":"2024-08-15T21:00:00:Z","depth":0,"parameterNumber":3,"parameterNumberName":"V-component_of_WINDS"},"data":[0,0,0,0,0,0,0,0,0,0,0,0,0,0,0,0,0,0,0,0,0,0,0,0,0,0,0,0,0,0,0,0,0,0,0,0,0,0,0,0,0,0,0,0,0,0,0,0,0,0,0,0,0,0,0,0,0,0,3.1598,3.1599,0,3.167,3.1671,3.1672,3.1641,3.164,3.1638,3.1636,3.1706,3.1709,3.1713,0,0,0,0,0,0,0,0,0,0,0,0,0,3.1429,3.1432,3.1598,3.1599,3.16,3.167,3.1671,3.1672,3.1642,3.164,3.1638,3.1636,3.1705,3.1709,3.1713,0,0,0,0,0,0,0,0,0,0,0,0,0,3.1502,3.1434,3.1598,3.1594,3.1594,3.167,3.1671,3.1672,3.1642,3.164,3.1637,3.1635,3.1703,3.1708,3.1714,3.1797,0,0,3.1729,3.1732,0,0,0,0,0,0,0,0,3.1498,3.1508,3.1593,3.1594,3.1595,3.1644,3.1637,3.1714,3.1643,3.1624,3.1636,3.1633,3.1687,3.1694,3.1713,3.18,3.1803,3.173,3.1733,3.1735,3.1737,0,0,0,0,0,0,0,3.1493,3.1505,3.1627,3.1595,3.1595,3.1586,3.1593,3.1651,3.1669,3.1625,3.1623,3.1632,3.1687,3.1708,3.1714,3.1804,3.173,3.1734,3.1737,3.1739,3.196,3.1963,0,0,0,0,0,0,3.1488,3.1501,3.1624,3.1629,3.1539,3.1591,3.1599,3.1631,3.1668,3.1672,3.1634,3.1631,3.17,3.1708,3.1716,3.1814,3.1735,3.174,3.1743,3.1958,3.1961,3.1964,0,0,0,0,0,0,3.1485,3.15,3.1621,3.1564,3.1579,3.1597,3.1632,3.1634,3.1654,3.1675,3.1678,3.1653,3.1698,3.1709,3.1777,3.1816,3.1742,3.1747,3.1954,3.1959,3.1962,3.2012,0,0,0,0,0,0,3.148,3.1499,3.1532,3.1565,3.1582,3.1683,3.1635,3.1637,3.1664,3.1659,3.1693,3.1696,3.1697,3.1769,3.1782,3.1822,3.1751,3.1951,3.1956,3.1961,3.2007,3.2018,3.2027,0,0,0,0,0,3.1474,3.1543,3.1534,3.1549,3.1625,3.1685,3.1695,3.1696,3.1667,3.17,3.1713,3.1695,3.181,3.1776,3.179,3.1833,3.1948,3.1955,3.1961,3.2003,3.2016,3.2026,0,0,0,0,0,0,3.1514,3.1548,3.1538,3.162,3.165,3.168,3.1721,3.171,3.1747,3.1741,3.174,3.1747,3.1817,3.1832,3.1793,3.1914,3.1875,3.1884,3.1902,3.1914,3.1924,3.1918,3.1755,0,0,0,0,0,3.1532,3.158,3.1606,3.1676,3.1692,3.1704,3.173,3.1728,3.1759,3.1771,3.1789,3.1818,3.186,3.1888,3.1928,3.2009,3.2014,3.2045,3.2055,3.2063,3.207,3.2111,3.2124,3.1984,3.1984,3.1984,0,0,3.157,3.1595,3.1625,3.1684,3.1707,3.1755,3.1715,3.1767,3.1801,3.1778,3.1843,3.1857,3.1889,3.1963,3.1996,3.1977,3.211,3.207,3.2077,3.208,3.2119,3.2132,3.2144,3.1989,3.1988,3.1987,0,0,3.1664,3.1688,3.1748,3.1771,3.1807,3.1814,3.1828,3.186,3.1868,3.1933,3.1916,3.1956,3.203,3.2052,3.2073,3.2173,3.2157,3.2186,3.2236,3.2276,3.2287,3.2296,3.233,3.2342,3.2193,3.2194,3.2194,0,3.1706,3.1779,3.1779,3.1833,3.1858,3.184,3.1898,3.1921,3.1967,3.1984,3.1962,3.2053,3.2073,3.2151,3.2174,3.2193,3.2207,3.2182,3.2286,3.2295,3.2304,3.2336,3.2348,3.2197,3.2196,3.2196,3.2196,0,3.1828,3.1878,3.1921,3.1967,3.1997,3.2053,3.206,3.209,3.2085,3.2094,3.2158,3.2182,3.2225,3.2244,3.2239,3.232,3.2307,3.2286,3.2246,3.2321,3.235,3.2362,3.2201,3.22,3.2199,3.2198,0,0,3.1949,3.1993,3.2009,3.2028,3.2065,3.2102,3.2156,3.2199,3.2224,3.2256,3.2299,3.236,3.234,3.2364,3.2361,3.2397,3.247,3.237,3.2371,3.2387,3.2558,3.2573,3.2587,3.246,3.2463,3.2465,3.2554,0,3.2044,3.2139,3.214,3.2227,3.2271,3.2253,3.2299,3.2325,3.2335,3.2372,3.2381,3.2424,3.2396,3.2409,3.2444,3.2454,3.2505,3.2448,3.2498,3.25,3.249,3.2603,3.2619,3.2703,3.2566,3.2568,3.257,0,3.2168,3.2204,3.2295,3.2322,3.2341,3.2383,3.2421,3.2458,3.2486,3.2489,3.2515,3.2507,3.2558,3.2518,3.2587,3.2549,3.2569,3.2577,3.258,3.2584,3.2539,3.2608,3.273,3.2742,3.2588,3.2587,3.2585,0,3.2244,3.2316,3.2379,3.2396,3.243,3.2459,3.2475,3.25,3.2525,3.2558,3.2573,3.2612,3.2632,3.2661,3.2662,3.2633,3.2731,3.2691,3.2734,3.2734,3.2755,3.2753,3.288,3.2771,3.277,3.277,3.277,0,3.2349,3.2405,3.2413,3.2452,3.2513,3.2512,3.2572,3.2585,3.2607,3.2646,3.2633,3.2669,3.2669,3.2705,3.2706,3.2762,3.2772,3.2775,3.2774,3.2775,3.2775,3.2788,3.2781,3.2773,3.2773,3.2772,3.2772,0,3.2446,3.2453,3.252,3.2547,3.2555,3.2598,3.262,3.2655,3.2662,3.2712,3.2723,3.2734,3.2776,3.278,3.2829,3.2829,3.2896,3.289,3.2887,3.2885,3.2927,3.2922,3.3066,3.3083,3.2963,3.2965,3.2966,0,3.2512,3.2554,3.2585,3.261,3.2627,3.2669,3.2694,3.2694,3.272,3.2754,3.2784,3.2825,3.2858,3.2925,3.2936,3.2972,3.2966,3.3013,3.2971,3.297,3.2964,3.2961,3.2964,3.3021,3.3023,3.3024,3.3025,0,3.2627,3.2628,3.2666,3.2704,3.2734,3.2764,3.2792,3.2814,3.2816,3.2846,3.2889,3.2915,3.2964,3.3003,3.3039,3.3052,3.3038,3.3038,3.3049,3.305,3.3046,3.3047,3.2907,3.3034,3.3034,3.3033,3.3032,3.3032,3.2709,3.2744,3.2771,3.2812,3.2833,3.2859,3.2893,3.2904,3.294,3.2981,3.2978,3.3025,3.3049,3.3095,3.3111,3.3146,3.3129,3.3147,3.3151,3.3154,3.3158,3.3042,3.3152,3.3152,3.3152,3.3151,3.3151,0,3.2822,3.2837,3.2875,3.2915,3.2946,3.2932,3.2961,3.2988,3.303,3.3054,3.3086,3.3133,3.3171,3.3185,3.3221,3.3246,3.324,3.3255,3.3253,3.3255,3.3171,3.3157,3.3259,3.3259,3.3259,3.3259,3.3259,3.3259,3.2884,3.2943,3.2947,3.3015,3.303,3.3076,3.3094,3.3117,3.3135,3.319,3.3221,3.323,3.3249,3.3286,3.3319,3.3321,3.3334,3.3352,3.3352,3.3273,3.3262,3.3251,3.3238,3.3355,3.3355,3.3433,3.3433,3.3434]}]]